Location: Ciserano
(45.5833°N, 9.6000°E)
Time: 11:26:55
(UTC+00:00)

Cosmos 1782 - Pass Details

Date: 29 November 2020
Orbit: 537 x 551 km, 82.5° (Epoch: 26 January)

Event Time Altitude Azimuth Distance (km) Brightness Sun altitude
Exits shadow 04:14:24 47° 31° (NNE) 739 3.5 -24.7°
Maximum altitude 04:15:14 58° 79° (ENE) 646 3.3 -24.6°
Drops below altitude 10° 04:19:12 10° 159° (SSE) 1,824 5.8 -23.9°
Sets 04:21:23 0° 163° (SSE) 2,714 6.7 -23.5°
